Other Public Products
Issued by NWS Grand Forks, ND

Home | Current Version | Previous Version | Graphics & Text | Print | Product List | Glossary On
Versions: 1 2 3 4 5 6 7 8 9 10 11 12 13 14 15 16 17 18 19 20 21 22 23 24 25 26 27 28 29 30 31 32 33 34 35 36 37 38 39 40 41 42 43 44 45 46 47 48 49 50
000
FPUS83 KFGF 212110
OPUFGF
PRAIRIE TO PINES WEATHER ROUNDUP
NATIONAL WEATHER SERVICE EASTERN NORTH DAKOTA/GRAND FORKS ND
300 PM CST TUE FEB 21 2017

 **SATELLITE DATA USED TO AUGMENT SKY COVER AT AUTOMATED STATIONS**
 *****  WEATHER ACROSS EASTERN NORTH DAKOTA  *****

CITY           SKY/WX    TMP DP  RH WIND       PRES   REMARKS
GRAND FORKS    PTSUNNY   40  33  76 NW12      29.67R HAZE
GRAND FORKS AF CLOUDY    36  35  98 N5        29.68R FOG
GRAND CITY NWS NOT AVBL
BUXTON         NOT AVBL
DEVILS LAKE    FAIR      39  33  79 W3        29.66R
FARGO          FAIR      47  39  74 W9        29.66S
WAHPETON ARPT  FAIR      50  39  66 W7        29.68R
$$

 *****  WEATHER ACROSS CENTRAL AND WESTERN NORTH DAKOTA  *****

CITY           SKY/WX    TMP DP  RH WIND       PRES   REMARKS
JAMESTOWN      CLOUDY    46  38  73 SW9       29.67R
BISMARCK       PTSUNNY   50  36  58 CALM      29.67F
MINOT          FAIR      46  36  68 SW8       29.63S
MINOT AFB      FAIR      39  35  83 W10       29.62S
GARRISON         N/A     44  35  70 CALM      29.65S
WILLISTON      CLOUDY    41  32  70 SW7       29.65S
DICKINSON      PTSUNNY   51  33  50 N10       29.65F
HETTINGER      FAIR      63  29  27 W7        29.66F
$$

 *****  OTHER OBSERVATIONS NORTHEAST NORTH DAKOTA  *****

CITY           SKY/WX    TMP DP  RH WIND       PRES   REMARKS
WALHALLA       NOT AVBL
LANGDON        NOT AVBL
CAVALIER       FAIR      34  32  93 E5        29.67S FOG
GRAFTON        FOG       32  32 100 N5        29.70R VSB<1/4
CANDO          NOT AVBL
FORT TOTTEN      N/A     42  35  76 W3        29.95S
ROLLA          FAIR      36  36 100 SE6       29.64F
RUGBY            N/A     36  32  87 CALM      29.63F
 ***** THE ABOVE OBSERVATIONS ARE NON NWS ARE NOT QUALITY
        CONTROLLED AND MAY MIS-REPORT RAIN FOR SNOW...
$$

 *****  OTHER OBSERVATIONS SOUTHEAST NORTH DAKOTA *****

CITY           SKY/WX    TMP DP  RH WIND       PRES   REMARKS
COOPERSTOWN    FAIR      41  36  81 NW9       29.66S
VALLEY CITY    FAIR      45  45 100 W8        29.69R
OAKES          NOT AVBL
GWINNER        FAIR      55  43  62 W8        29.68S
SHEYENNE NWR     N/A     51  39  63 W9        29.95S
BUFFALO        NOT AVBL
WYNDMERE       NOT AVBL
 ***** THE ABOVE OBSERVATIONS ARE NON NWS ARE NOT QUALITY
       CONTROLLED AND MAY MIS-REPORT RAIN FOR SNOW...
$$

  *****  WEATHER ACROSS NORTHERN MINNESOTA  *****

CITY           SKY/WX    TMP DP  RH WIND       PRES   REMARKS
FLAG ISLAND    CLOUDY    34  30  86 CALM      29.66F
WARROAD        FOG       34  28  80 CALM      29.67R VSB 1/2
ROSEAU         FAIR      36  32  87 E3        29.67R
HALLOCK        FOG       36  34  93 CALM      29.67S VSB<1/4
THF RVR FALLS  FAIR      45  37  73 CALM      29.66R
HALSTAD          N/A     44  39  84 W8          N/A
FOSSTON        FAIR      46  43  87 SW8       29.65S
BAUDETTE       FAIR      39  33  79 E5        29.65F
WASKISH        FAIR      52  37  58 SE8       29.63F
CROOKSTON      FAIR      43  37  81 W7        29.66S
$$
  *****  WEATHER ACROSS CENTRAL AND WEST MINNESOTA  *****

CITY           SKY/WX    TMP DP  RH WIND       PRES   REMARKS
BEMIDJI        FAIR      47  34  60 S5        29.64S
PARK RAPIDS    FAIR      44  34  67 SW8       29.64S
WADENA         FAIR      48  37  66 SW8       29.66S
DETROIT LAKES  FAIR      45  37  76 W3        29.66S
MOORHEAD       FAIR      45  37  76 W9        29.67R
FERGUS FALLS   FAIR      48  43  81 SW7       29.71R
ELBOW LAKE     FAIR      49  44  80 SW3       29.68F
MORRIS MN      FAIR      54  43  66 W6        29.67S
STAPLES        FAIR      48  37  66 SW6       29.67R
WHEATON        FAIR      55  39  54 W5        29.69S
$$
  *****  WEATHER ELSEWHERE ACROSS MINNESOTA  *****

CITY           SKY/WX    TMP DP  RH WIND       PRES   REMARKS
DULUTH         FAIR      48  35  60 S14       29.68F
INTRNTL FALLS  FAIR      45  34  65 NE6       29.66F
ELY            FAIR      48  32  53 CALM      29.68F
CLOQUET        FAIR      50  32  50 S10G18    29.68F
BRAINERD       FAIR      51  39  63 S16       29.67S
HIBBING        FAIR      46  33  60 E3        29.66F
ALEXANDRIA     FAIR      50  41  71 SW8       29.68F
SAINT CLOUD    FAIR      55  44  66 S15       29.68F
MINNEAPOLIS    PTSUNNY   61  39  44 SW17G31   29.73F
$$

  *****  WEATHER ACROSS SOUTH DAKOTA  *****

CITY           SKY/WX    TMP DP  RH WIND       PRES   REMARKS
SIOUX FALLS    FAIR      66  39  37 W9        29.73S
BROOKINGS      FAIR      61  40  45 SW12      29.71F
WATERTOWN      FAIR      58  43  57 SW13      29.71S
HURON          FAIR      68  36  30 NW5       29.68F
SISSETON         N/A     57  44  62 W10       29.67R
ABERDEEN       FAIR      62  35  36 SW7       29.68F
MITCHELL       FAIR      69  36  29 W7        29.70F
PIERRE         FAIR      69  34  27 SW5       29.67F
MOBRIDGE       FAIR      59  38  45 SE9       29.64F
RAPID CITY     FAIR      70  28  21 W28G38    29.68F
$$

  *****  SOME WEATHER IN NEARBY STATES *****

CITY           SKY/WX    TMP DP  RH WIND       PRES   REMARKS
GLASGOW MT     LGT RAIN  46  36  68 NW12      29.63F
GREAT FALLS MT CLOUDY    42  36  79 E6        29.61S
CHEYENNE WY    FAIR      61  17  18 W26G40    30.01F
SCOTTSBLUFF NE FAIR      72  22  15 W28G45    29.83F
OMAHA NE       FAIR      71  36  27 S12       29.85F
DES MOINES IA  FAIR      68  33  27 W12       29.89F
DAVENPORT IA   FAIR      63  43  48 VRB3      29.91F
CHICAGO IL     PTSUNNY   65  53  65 W8        29.90R
EAU CLAIRE WI  FAIR      57  37  47 S13       29.78F
LA CROSSE WI   FAIR      61  39  44 S13       29.84F
$$

  *****  SOME NATIONAL WEATHER *****

CITY           SKY/WX    TMP DP  RH WIND       PRES   REMARKS
LA GUARDIA NY  CLOUDY    46  30  53 S13       30.23F
RALEIGH NC     CLOUDY    64  34  32 SE3       30.14F
ATLANTA GA     LGT RAIN  64  60  87 E7        30.00S
NEW ORLEANS LA FAIR      71  55  56 CALM      29.85F
OKLAHOMA CITY  FAIR      71  36  27 N14       29.96F
ALBUQUERQUE NM FAIR      66  32  28 VRB3      30.25F
SALT LAKE CITY FAIR      63  36  36 S32G45    29.92F
LOS ANGELES CA CLOUDY    62  56  80 W8        30.29F
BOISE ID       FAIR      55  27  34 SW17G29   29.90F
SEATTLE WA     CLOUDY    45  40  82 N8        29.94R
$$

*** WEATHER ACROSS MANITOBA...SASKATCHEWAN AND ONTARIO ***
                ***ONTARIO***

CITY           SKY/WX    TMP DP  RH WIND       PRES   REMARKS
GERALDTON      CLOUDY    36  30  80 W12G23    29.63S
THUNDER BAY    PTSUNNY   46  32  57 SW9       29.71S
SIOUX LOOKOUT  CLOUDY    37  30  75 W7        29.66F
TORONTO        LGT RAIN  39  36  87 SE6       29.90F
BIG TROUT LK   CLOUDY    28  25  86 W22G31    29.44R WCI  15
PICKLE LAKE    FLURRIES  34  28  80 W17G24    29.58R WCI  23
DRYDEN         CLOUDY    36  32  87 SW7       29.65F
KENORA         FLURRIES  34  30  86 SW5       29.66F
$$
                *** MANITOBA***

CITY           SKY/WX    TMP DP  RH WIND       PRES   REMARKS
BRANDON        CLOUDY    36  30  80 E3        29.66F
DAUPHIN        CLOUDY    39  30  70 W3        29.66F
ISLAND LAKE    FLURRIES  27  23  86 W16G23    29.58R WCI  14
PILOT MOUND      N/A     37  34  87 S1          N/A
THE PAS        CLOUDY    34  23  64 NW16      29.64S WCI  23
THOMPSON       FLURRIES  18  12  79 NW10      29.56R WCI   6
WINNIPEG       CLOUDY    34  32  93 W5        29.69S FOG
LYNN LAKE      FLURRIES  16  12  86 NW12G17   29.58R WCI   3
CHURCHILL      SNOW      10   9  92 NE22G29   29.48R VSB 1/2 WCI  -9
GILLAM         FLURRIES  12   5  73 W18G30    29.48R WCI  -5
$$
                ***SASKATCHEWAN***

CITY           SKY/WX    TMP DP  RH WIND       PRES   REMARKS
ESTEVAN        MOSUNNY   37  34  87 SW9       29.62S
KINDERSLEY     PTSUNNY   34  25  69 NE8       29.70F
LLOYDMINSTER   CLOUDY    34  27  75 SW9       29.69F
PRINCE ALBERT  CLOUDY    34  23  64 W7        29.70S
REGINA         CLOUDY    34  30  86 N8        29.67R
YORKTON        CLOUDY    36  30  80 N6        29.67R



USA.gov is the U.S. government's official web portal to all federal, state and local government web resources and services.